GW2455 Weather Reports


Display with metric or nautical units.
time (UTC)temp
F
wind
direction
speed
MPH
gust
MPH
rain 1hr
in
rain 24hr
in
rain mn
in
humidity
%
barometer
mb
20260831124333 76 247 9.0 13.0 0.00 0.00 0.00 92 1022.5
20260831123833 76 250 10.0 13.0 0.00 0.00 0.00 92 1022.5
20260831123333 76 250 9.0 13.0 0.00 0.00 0.00 92 1022.5
20260831122833 76 249 9.0 15.0 0.00 0.00 0.00 92 1022.5
20260831122331 76 229 10.0 15.0 0.00 0.00 0.00 92 1022.6
20260831121832 76 240 10.0 14.0 0.00 0.00 0.00 92 1022.5
20260831121713 76 247 10.0 14.0 0.00 0.00 0.00 92 1022.6
20260831120828 76 256 9.0 14.0 0.00 0.00 0.00 92 1022.4
20260831120750 76 244 10.0 13.0 0.00 0.00 0.00 91 1022.5
20260831115827 76 251 9.0 14.0 0.00 0.00 0.00 91 1022.5
20260831115324 76 263 11.0 14.0 0.00 0.00 0.00 91 1022.4
20260831114823 76 282 9.0 14.0 0.00 0.00 0.00 90 1022.5
20260831114321 77 242 9.0 14.0 0.00 0.00 0.00 91 1022.4
20260831113822 76 260 9.0 14.0 0.00 0.00 0.00 91 1022.5
20260831113320 76 237 10.0 14.0 0.00 0.00 0.00 90 1022.3
20260831112821 76 265 8.0 12.0 0.00 0.00 0.00 92 1022.3
20260831112318 76 247 7.0 12.0 0.00 0.00 0.00 91 1022.2
20260831111814 76 270 7.0 12.0 0.00 0.00 0.00 92 1022.2
20260831111312 76 270 7.0 13.0 0.00 0.00 0.00 92 1022.3
20260831110810 76 256 9.0 14.0 0.00 0.00 0.00 91 1022.2
20260831110307 76 261 9.0 14.0 0.00 0.00 0.00 91 1022.2
20260831105807 76 260 8.0 13.0 0.00 0.00 0.00 92 1022.2
20260831105306 76 264 9.0 13.0 0.00 0.00 0.00 91 1022.1
20260831104906 76 256 9.0 13.0 0.00 0.00 0.00 91 1022.2
20260831104127 76 236 10.0 14.0 0.00 0.00 0.00 91 1022.1
20260831103304 76 250 8.0 14.0 0.00 0.00 0.00 91 1022.1
20260831102803 76 261 11.0 16.0 0.00 0.00 0.00 90 1022.1
20260831102305 76 267 11.0 16.0 0.00 0.00 0.00 90 1022.0
20260831101803 76 260 9.0 14.0 0.00 0.00 0.00 90 1022.1
20260831101646 76 237 9.0 14.0 0.00 0.00 0.00 90 1022.1
20260831100802 76 264 10.0 15.0 0.00 0.00 0.00 90 1022.1
20260831100300 76 239 10.0 15.0 0.00 0.00 0.00 89 1022.1
20260831095800 76 274 11.0 15.0 0.00 0.00 0.00 90 1022.2
20260831095258 76 264 8.0 14.0 0.00 0.00 0.00 90 1022.2
20260831095111 76 265 10.0 14.0 0.00 0.00 0.00 89 1022.2
20260831094255 76 258 10.0 14.0 0.00 0.00 0.00 90 1022.3
20260831093752 76 260 7.0 14.0 0.00 0.00 0.00 90 1022.2
20260831093247 75 260 10.0 14.0 0.00 0.00 0.00 90 1022.3
20260831092749 75 284 8.0 15.0 0.00 0.00 0.00 90 1022.3
20260831092247 75 264 9.0 15.0 0.00 0.00 0.00 90 1022.2
20260831091745 75 260 8.0 15.0 0.00 0.00 0.00 91 1022.2
20260831091239 75 260 9.0 15.0 0.00 0.00 0.00 90 1022.1
20260831090739 75 273 7.0 11.0 0.00 0.00 0.00 90 1022.1
20260831090237 75 249 6.0 12.0 0.00 0.00 0.00 91 1021.9
20260831090221 74 243 9.0 13.0 0.00 0.00 0.00 90 1021.8
20260831084732 74 292 8.0 11.0 0.00 0.00 0.00 91 1021.8
20260831084232 74 268 6.0 11.0 0.00 0.00 0.00 91 1021.9
20260831084051 74 257 7.0 10.0 0.00 0.00 0.00 92 1021.9
20260831083231 74 265 6.0 12.0 0.00 0.00 0.00 92 1021.8
20260831082732 74 263 6.0 15.0 0.00 0.01 0.00 92 1021.8
20260831082538 74 267 9.0 15.0 0.00 0.01 0.00 92 1021.8
20260831081732 74 281 7.0 11.0 0.00 0.01 0.00 92 1021.7
20260831081230 74 280 7.0 11.0 0.00 0.01 0.00 93 1021.6
20260831080731 73 270 6.0 10.0 0.00 0.01 0.00 93 1021.7
20260831080549 73 298 7.0 12.0 0.00 0.01 0.00 93 1021.6
20260831075230 73 267 7.0 11.0 0.00 0.05 0.00 93 1021.5
20260831074729 73 296 7.0 11.0 0.00 0.05 0.00 93 1021.5
20260831074228 73 308 6.0 10.0 0.00 0.06 0.00 93 1021.4
20260831073729 73 294 5.0 10.0 0.00 0.06 0.00 93 1021.4
20260831073228 73 275 7.0 10.0 0.00 0.06 0.00 93 1021.4
20260831072727 73 298 7.0 11.0 0.00 0.06 0.00 93 1021.3
20260831072227 72 274 8.0 11.0 0.00 0.09 0.00 93 1021.3
20260831071728 72 285 6.0 10.0 0.00 0.09 0.00 93 1021.2
20260831071551 72 278 5.0 10.0 0.00 0.09 0.00 93 1021.2
20260831070727 72 282 6.0 10.0 0.00 0.09 0.00 93 1021.2
20260831070227 72 296 5.0 10.0 0.00 0.09 0.00 93 1021.2
20260831065726 72 273 5.0 10.0 0.00 0.09 0.00 93 1021.2
20260831065225 72 282 5.0 10.0 0.00 0.09 0.00 94 1021.1
20260831065024 72 264 6.0 9.0 0.00 0.09 0.00 94 1021.1
20260831064217 72 264 6.0 10.0 0.00 0.09 0.00 94 1021.1
20260831064033 72 265 5.0 10.0 0.00 0.09 0.00 94 1021.1
20260831063533 72 284 6.0 10.0 0.00 0.09 0.00 94 1021.1
20260831062712 73 277 6.0 11.0 0.00 0.09 0.00 94 1021.1
20260831062211 73 267 7.0 11.0 0.00 0.09 0.00 94 1021.1
20260831061709 73 278 6.0 10.0 0.00 0.09 0.00 94 1021.0
20260831061207 73 268 6.0 10.0 0.00 0.09 0.00 94 1021.0
20260831060705 73 271 6.0 11.0 0.00 0.09 0.00 94 1021.1
20260831060512 73 274 6.0 13.0 0.00 0.09 0.00 94 1021.0
20260831055701 73 273 8.0 13.0 0.00 0.09 0.00 94 1021.1
20260831055202 73 264 6.0 12.0 0.00 0.09 0.00 94 1021.0
20260831054700 73 282 8.0 12.0 0.00 0.09 0.00 94 1021.0
20260831054156 73 278 5.0 11.0 0.00 0.09 0.00 94 1021.0
20260831053746 73 278 8.0 12.0 0.00 0.09 0.00 94 1021.0
20260831053022 73 274 8.0 14.0 0.00 0.12 0.00 94 1021.1
20260831052145 73 304 9.0 14.0 0.00 0.13 0.00 94 1021.1
20260831051643 73 284 7.0 12.0 0.00 0.13 0.00 95 1021.1
20260831051137 73 265 8.0 11.0 0.00 0.13 0.00 95 1021.2
20260831050634 73 278 6.0 10.0 0.00 0.13 0.00 95 1021.2
20260831050132 73 251 5.0 12.0 0.00 0.13 0.00 95 1021.2
20260831045634 73 284 8.0 12.0 0.00 0.13 0.00 95 1021.3
20260831045133 73 268 8.0 12.0 0.00 0.13 0.00 95 1021.3
20260831044633 73 263 8.0 12.0 0.00 0.13 0.00 95 1021.4
20260831044133 73 263 6.0 11.0 0.00 0.13 0.00 95 1021.4
20260831043630 73 258 6.0 11.0 0.00 0.13 0.00 95 1021.3
20260831043441 73 247 6.0 10.0 0.00 0.13 0.00 95 1021.4
20260831042630 73 274 5.0 11.0 0.00 0.13 0.00 95 1021.3
20260831042129 73 288 6.0 11.0 0.00 0.13 0.00 95 1021.3
20260831041946 73 281 7.0 11.0 0.00 0.13 0.00 95 1021.4
20260831041127 73 265 7.0 13.0 0.00 0.13 0.00 95 1021.4
20260831040938 73 280 7.0 13.0 0.00 0.13 0.00 95 1021.5
20260831040120 73 296 10.0 15.0 0.00 0.13 0.00 95 1021.4
20260831035615 73 270 10.0 15.0 0.00 0.13 0.00 95 1021.3
20260831035157 73 237 9.0 13.0 0.00 0.13 0.00 95 1021.4
20260831034110 73 277 7.0 12.0 0.00 0.13 0.00 95 1021.3
20260831033609 73 254 6.0 13.0 0.00 0.13 0.00 95 1021.4
20260831033414 73 242 6.0 15.0 0.00 0.13 0.00 95 1021.3
20260831032602 73 282 9.0 15.0 0.00 0.13 0.00 95 1021.4
20260831032103 73 291 8.0 12.0 0.00 0.13 0.00 95 1021.4
20260831031604 73 274 7.0 12.0 0.00 0.13 0.00 95 1021.5
20260831031421 73 260 6.0 13.0 0.00 0.13 0.00 95 1021.5
20260831030917 73 267 7.0 13.0 0.00 0.13 0.00 95 1021.5
20260831030158 73 258 8.0 13.0 0.00 0.13 0.00 95 1021.5
20260831025103 73 261 8.0 14.0 0.00 0.13 0.00 95 1021.6
20260831024600 73 258 9.0 14.0 0.00 0.13 0.00 95 1021.5
20260831024056 73 260 8.0 13.0 0.00 0.13 0.00 95 1021.5
20260831023549 73 254 9.0 14.0 0.00 0.13 0.00 95 1021.5
20260831023044 73 256 8.0 14.0 0.00 0.13 0.00 95 1021.5
20260831022544 73 226 8.0 14.0 0.00 0.13 0.00 95 1021.5
20260831022039 73 251 9.0 13.0 0.00 0.13 0.00 95 1021.5
20260831021537 73 258 9.0 13.0 0.00 0.13 0.00 95 1021.6
20260831021410 73 275 6.0 12.0 0.00 0.13 0.00 95 1021.5
20260831020533 73 254 8.0 13.0 0.00 0.13 0.00 95 1021.6
20260831020035 73 251 9.0 13.0 0.00 0.13 0.00 95 1021.6
20260831015534 73 244 8.0 14.0 0.00 0.13 0.00 95 1021.6
20260831015035 73 271 11.0 14.0 0.00 0.13 0.00 95 1021.6
20260831014535 73 273 9.0 13.0 0.00 0.13 0.00 95 1021.7
20260831014034 73 274 8.0 13.0 0.00 0.13 0.00 95 1021.8
20260831013531 73 260 8.0 12.0 0.00 0.13 0.00 95 1021.8
20260831013030 73 275 8.0 12.0 0.00 0.13 0.00 95 1021.8
20260831013024 73 275 7.0 12.0 0.00 0.13 0.00 95 1021.8
20260831011523 73 271 8.0 13.0 0.00 0.13 0.00 95 1021.9
20260831011020 73 263 6.0 13.0 0.00 0.13 0.00 95 1022.0
20260831010523 73 282 8.0 13.0 0.00 0.13 0.00 95 1022.0
20260831010311 73 264 7.0 12.0 0.00 0.13 0.00 95 1022.0
20260831005506 73 271 9.0 12.0 0.00 0.13 0.00 95 1022.1
20260831005002 73 263 8.0 11.0 0.00 0.13 0.00 95 1022.1
20260831004502 73 281 8.0 11.0 0.00 0.13 0.00 96 1022.1
20260831004002 73 273 8.0 11.0 0.00 0.13 0.00 96 1022.2
20260831003458 73 273 6.0 10.0 0.00 0.13 0.00 96 1022.2
20260831002957 73 247 7.0 11.0 0.00 0.13 0.00 96 1022.3
20260831002457 73 249 6.0 12.0 0.00 0.13 0.00 96 1022.3
20260831001955 73 273 7.0 12.0 0.00 0.13 0.00 96 1022.3
20260831001759 73 254 9.0 13.0 0.00 0.13 0.00 96 1022.3
20260831001309 73 265 8.0 13.0 0.00 0.13 0.00 97 1022.3
20260831000811 73 282 8.0 12.0 0.00 0.13 0.00 97 1022.3
20260830235949 73 267 8.0 12.0 0.00 0.13 0.13 97 1022.2
20260830235447 73 264 9.0 12.0 0.00 0.13 0.13 97 1022.2
20260830234943 73 254 9.0 11.0 0.00 0.13 0.13 97 1022.3
20260830234443 73 244 7.0 10.0 0.00 0.13 0.13 97 1022.3
20260830234256 73 244 5.0 11.0 0.00 0.13 0.13 97 1022.3
20260830233440 73 263 7.0 11.0 0.00 0.13 0.13 97 1022.2
20260830232939 73 216 6.0 11.0 0.00 0.13 0.13 97 1022.2
20260830232438 73 258 7.0 11.0 0.00 0.13 0.13 97 1022.3
20260830231936 73 285 6.0 11.0 0.00 0.13 0.13 97 1022.3
20260830231534 74 284 6.0 11.0 0.00 0.13 0.13 97 1022.3
20260830230808 74 273 6.0 11.0 0.00 0.13 0.13 97 1022.3
20260830225934 74 260 6.0 12.0 0.00 0.13 0.13 97 1022.2
20260830225434 74 274 7.0 12.0 0.00 0.13 0.13 97 1022.1
20260830225312 74 284 6.0 12.0 0.00 0.13 0.13 96 1022.1
20260830224434 74 265 6.0 13.0 0.00 0.13 0.13 96 1022.1
20260830223933 74 263 7.0 14.0 0.00 0.13 0.13 96 1022.1
20260830223433 74 277 9.0 16.0 0.00 0.13 0.13 97 1022.0
20260830222933 74 257 11.0 16.0 0.00 0.13 0.13 97 1022.0
20260830222539 74 247 12.0 15.0 0.00 0.13 0.13 97 1022.1
20260830221434 74 256 9.0 13.0 0.00 0.13 0.13 97 1022.1
20260830220929 74 253 9.0 14.0 0.00 0.13 0.13 97 1022.1
20260830220427 74 257 9.0 14.0 0.00 0.13 0.13 97 1022.1
20260830220239 74 267 8.0 12.0 0.00 0.13 0.13 97 1022.1
20260830215427 74 263 7.0 12.0 0.00 0.13 0.13 97 1022.0
20260830214923 74 277 8.0 13.0 0.00 0.13 0.13 96 1022.0
20260830214421 74 268 9.0 13.0 0.00 0.13 0.13 96 1022.0
20260830213919 74 246 9.0 14.0 0.00 0.13 0.13 96 1022.0
20260830213418 74 256 9.0 15.0 0.00 0.13 0.13 96 1021.9
20260830212918 74 249 11.0 15.0 0.00 0.13 0.13 96 1021.9
20260830212418 74 236 10.0 15.0 0.00 0.13 0.13 96 1021.9
20260830212223 74 243 10.0 17.0 0.00 0.13 0.13 96 1021.8
20260830211417 74 251 11.0 17.0 0.00 0.13 0.13 96 1021.8
20260830210915 74 250 11.0 15.0 0.00 0.13 0.13 96 1021.7
20260830210734 74 268 11.0 14.0 0.00 0.13 0.13 96 1021.7
20260830205915 74 257 11.0 15.0 0.00 0.13 0.13 96 1021.6
20260830205416 74 234 11.0 15.0 0.00 0.13 0.13 96 1021.6
20260830204916 74 234 10.0 13.0 0.00 0.13 0.13 96 1021.6
20260830204414 74 247 9.0 13.0 0.00 0.13 0.13 96 1021.5
20260830203916 74 268 9.0 12.0 0.00 0.13 0.13 96 1021.5
20260830203415 74 227 9.0 14.0 0.00 0.13 0.13 96 1021.5
20260830202914 74 239 9.0 14.0 0.00 0.13 0.13 96 1021.6
20260830202417 74 261 9.0 12.0 0.00 0.13 0.13 95 1021.6
20260830201917 74 278 8.0 12.0 0.00 0.13 0.13 96 1021.6
20260830201412 74 268 7.0 11.0 0.00 0.13 0.13 95 1021.6
20260830201010 74 233 6.0 12.0 0.00 0.13 0.13 95 1021.5
20260830195910 74 253 7.0 13.0 0.00 0.13 0.13 95 1021.6
20260830195407 74 261 9.0 14.0 0.00 0.13 0.13 95 1021.7
20260830194906 75 250 9.0 15.0 0.00 0.13 0.13 94 1021.6
20260830194406 75 281 9.0 15.0 0.00 0.13 0.13 94 1021.7
20260830193906 75 240 11.0 17.0 0.00 0.13 0.13 94 1021.8
20260830193405 75 268 9.0 17.0 0.00 0.13 0.13 94 1021.7
20260830192906 75 270 11.0 15.0 0.00 0.13 0.13 94 1021.8
20260830192403 75 267 9.0 16.0 0.00 0.13 0.13 94 1021.6
20260830191900 75 271 12.0 16.0 0.00 0.13 0.13 93 1021.7
20260830191457 75 268 8.0 15.0 0.00 0.13 0.13 94 1021.7
20260830190711 75 258 9.0 16.0 0.00 0.13 0.13 93 1021.6
20260830190208 75 254 11.0 15.0 0.00 0.13 0.13 93 1021.6
20260830185711 75 267 9.0 14.0 0.00 0.13 0.13 93 1021.6
20260830185206 76 250 9.0 13.0 0.00 0.13 0.13 93 1021.7
20260830184353 76 270 10.0 14.0 0.00 0.13 0.13 93 1021.6
20260830183852 76 229 10.0 14.0 0.00 0.13 0.13 93 1021.6
20260830183353 76 246 9.0 14.0 0.00 0.13 0.13 92 1021.7
20260830182851 76 254 8.0 13.0 0.00 0.13 0.13 92 1021.6
20260830182349 76 274 9.0 13.0 0.00 0.13 0.13 92 1021.7
20260830181850 76 242 9.0 15.0 0.00 0.13 0.13 92 1021.7
20260830181347 76 260 11.0 16.0 0.00 0.13 0.13 92 1021.8
20260830180950 76 237 11.0 15.0 0.00 0.13 0.13 93 1022.0
20260830180223 76 242 10.0 16.0 0.00 0.13 0.13 93 1021.9
20260830175657 76 234 12.0 16.0 0.00 0.13 0.13 92 1021.8
20260830174840 76 239 10.0 14.0 0.00 0.13 0.13 91 1021.8
20260830174656 77 253 10.0 16.0 0.00 0.13 0.13 91 1021.9
20260830173834 77 244 11.0 16.0 0.00 0.13 0.13 90 1021.8
20260830173335 77 237 11.0 16.0 0.00 0.13 0.13 90 1021.8
20260830173156 77 287 9.0 15.0 0.00 0.13 0.13 91 1021.9
20260830172649 77 251 10.0 15.0 0.00 0.13 0.13 91 1021.9
20260830171836 77 278 11.0 17.0 0.00 0.13 0.13 90 1021.9
20260830171333 76 236 8.0 17.0 0.00 0.13 0.13 92 1021.8
20260830170829 76 254 11.0 17.0 0.00 0.13 0.13 92 1021.8
20260830170328 76 267 11.0 17.0 0.00 0.13 0.13 93 1021.9
20260830170144 76 251 9.0 15.0 0.00 0.13 0.13 93 1021.9
20260830165326 76 215 11.0 15.0 0.00 0.13 0.13 92 1022.0
20260830164914 76 240 10.0 15.0 0.00 0.13 0.13 92 1021.9
20260830163812 76 247 11.0 15.0 0.00 0.13 0.13 93 1022.0
20260830163313 76 247 11.0 15.0 0.00 0.13 0.13 92 1022.0
20260830162809 76 263 10.0 16.0 0.00 0.13 0.13 92 1022.0
20260830162311 76 254 12.0 16.0 0.00 0.13 0.13 92 1022.0
20260830161810 76 251 12.0 16.0 0.00 0.13 0.13 92 1022.0
20260830161310 76 250 11.0 16.0 0.00 0.13 0.13 93 1022.0
20260830160810 76 222 9.0 16.0 0.00 0.13 0.13 94 1022.2
20260830160308 75 263 11.0 14.0 0.00 0.13 0.13 93 1022.2
20260830155810 75 233 10.0 12.0 0.00 0.13 0.13 93 1022.2
20260830155308 76 250 9.0 12.0 0.00 0.13 0.13 92 1022.3
20260830154809 76 233 9.0 12.0 0.00 0.13 0.13 92 1022.4
20260830154311 76 206 7.0 11.0 0.00 0.13 0.13 92 1022.3
20260830153810 76 226 6.0 13.0 0.00 0.13 0.13 92 1022.4
20260830153309 76 249 8.0 13.0 0.00 0.13 0.13 92 1022.4
20260830152804 76 254 9.0 13.0 0.00 0.13 0.13 92 1022.5
20260830152618 76 247 8.0 14.0 0.00 0.13 0.13 92 1022.4
20260830151801 76 250 8.0 14.0 0.00 0.13 0.13 92 1022.5
20260830151301 76 236 8.0 14.0 0.00 0.13 0.13 92 1022.4
20260830151114 76 203 9.0 14.0 0.00 0.13 0.13 92 1022.4
20260830150258 76 246 9.0 14.0 0.00 0.13 0.13 93 1022.4
20260830145758 76 257 9.0 14.0 0.00 0.13 0.13 93 1022.5
20260830145300 76 260 9.0 14.0 0.00 0.13 0.13 94 1022.3
20260830144753 76 258 10.0 14.0 0.00 0.13 0.13 94 1022.4
20260830144253 75 257 9.0 14.0 0.00 0.13 0.13 94 1022.6
20260830143751 75 250 8.0 14.0 0.00 0.13 0.13 94 1022.5
20260830143249 75 225 10.0 14.0 0.00 0.13 0.13 94 1022.5
20260830142752 75 253 11.0 15.0 0.00 0.13 0.13 94 1022.5
20260830142239 75 236 10.0 15.0 0.00 0.13 0.13 94 1022.5
20260830142112 75 213 6.0 12.0 0.00 0.13 0.13 93 1022.5
20260830141609 75 242 7.0 12.0 0.00 0.13 0.13 93 1022.6
20260830140736 76 219 8.0 12.0 0.00 0.13 0.13 92 1022.5
20260830140234 76 270 8.0 13.0 0.00 0.13 0.13 92 1022.6
20260830135733 76 253 9.0 15.0 0.00 0.13 0.13 92 1022.7
20260830135236 76 246 11.0 15.0 0.00 0.13 0.13 92 1022.8
20260830134733 76 222 10.0 13.0 0.00 0.13 0.13 92 1022.8
20260830134233 76 242 9.0 13.0 0.00 0.13 0.13 92 1022.8
20260830133735 76 247 9.0 13.0 0.00 0.13 0.13 92 1022.8
20260830133235 76 251 10.0 13.0 0.00 0.13 0.13 92 1022.8
20260830132736 76 230 10.0 14.0 0.00 0.13 0.13 92 1022.8
20260830132235 75 257 10.0 14.0 0.00 0.13 0.13 92 1022.9
20260830132113 76 243 10.0 14.0 0.00 0.13 0.13 92 1022.9
20260830131234 75 227 11.0 14.0 0.00 0.13 0.13 92 1023.0
20260830130735 76 249 11.0 14.0 0.00 0.13 0.13 92 1023.0
20260830130233 75 249 11.0 14.0 0.00 0.13 0.13 93 1022.9
20260830130044 75 265 11.0 14.0 0.00 0.13 0.13 93 1022.9
20260830125547 75 244 11.0 13.0 0.00 0.13 0.13 93 1023.0